When you browse on this site, cookies collect data to enhance your experience and personalize the content and advertising you see.
Visit our Privacy Policy to learn more. By continuing to use the site, you agree to this use of cookies and data.
  • In Switzerland
  • List of Countries
  • For 7 days
  • Water Temperature
  • Satellite Maps
  • Weather Map
  • Weather Widgets
  • user-avatar
    Login

    Hourly Weather Yangcun

    Today, 19 July, Friday

    Time Temperature Precipitation Wind Pressure Humidity
    00:00 +29°C° 0 mm 3 mps 753 mmHg 61%
    01:00 +28°C° 0 mm 2 mps 753 mmHg 64%
    02:00 +28°C° 0 mm 2 mps 753 mmHg 68%
    03:00 +27°C° 0 mm 2 mps 753 mmHg 70%
    04:00 +27°C° 0 mm 2 mps 753 mmHg 72%
    05:00 +26°C° 0 mm 2 mps 753 mmHg 74%
    06:00 +28°C° 0 mm 2 mps 753 mmHg 69%
    07:00 +29°C° 0 mm 2 mps 753 mmHg 64%
    08:00 +31°C° 0 mm 3 mps 753 mmHg 58%
    09:00 +33°C° 0 mm 3 mps 753 mmHg 52%
    10:00 +35°C° 0 mm 2 mps 753 mmHg 47%
    11:00 +37°C° 0 mm 2 mps 753 mmHg 41%
    12:00 +37°C° 0 mm 3 mps 752 mmHg 39%
    13:00 +38°C° 0 mm 3 mps 752 mmHg 37%
    14:00 +38°C° 0 mm 4 mps 751 mmHg 36%
    15:00 +38°C° 0 mm 4 mps 751 mmHg 36%
    16:00 +38°C° 0 mm 4 mps 750 mmHg 35%
    17:00 +38°C° 0 mm 4 mps 750 mmHg 35%
    18:00 +36°C° 0 mm 4 mps 750 mmHg 42%
    19:00 +34°C° 0 mm 4 mps 750 mmHg 49%
    20:00 +32°C° 0 mm 4 mps 750 mmHg 57%
    21:00 +30°C° 0 mm 4 mps 751 mmHg 59%
    22:00 +30°C° 0 mm 4 mps 751 mmHg 61%
    23:00 +29°C° 0 mm 4 mps 751 mmHg 63%

    Tomorrow, 20 July, Saturday

    Time Temperature Precipitation Wind Pressure Humidity
    00:00 +28°C° 0 mm 3 mps 751 mmHg 67%
    01:00 +28°C° 0 mm 3 mps 751 mmHg 71%
    02:00 +27°C° 0 mm 2 mps 751 mmHg 75%
    03:00 +26°C° 0 mm 2 mps 751 mmHg 79%
    04:00 +26°C° 0 mm 2 mps 751 mmHg 83%
    05:00 +26°C° 0 mm 3 mps 751 mmHg 86%
    06:00 +27°C° 0 mm 2 mps 751 mmHg 81%
    07:00 +28°C° 0 mm 2 mps 751 mmHg 75%
    08:00 +29°C° 0 mm 2 mps 752 mmHg 70%
    09:00 +29°C° 0 mm 2 mps 752 mmHg 70%
    10:00 +29°C° 0 mm 2 mps 752 mmHg 70%
    11:00 +29°C° 0 mm 1 mps 752 mmHg 70%
    12:00 +29°C° 0.2 mm 1 mps 752 mmHg 73%
    13:00 +28°C° 0.2 mm 1 mps 751 mmHg 76%
    14:00 +28°C° 0.2 mm 1 mps 751 mmHg 80%
    15:00 +28°C° 0.1 mm 1 mps 751 mmHg 76%
    16:00 +29°C° 0.1 mm 1 mps 751 mmHg 72%
    17:00 +30°C° 0.1 mm 1 mps 750 mmHg 68%
    18:00 +29°C° 0 mm 1 mps 750 mmHg 71%
    19:00 +28°C° 0 mm 1 mps 750 mmHg 74%
    20:00 +27°C° 0 mm 1 mps 750 mmHg 77%
    21:00 +27°C° 0 mm 1 mps 750 mmHg 77%
    22:00 +27°C° 0 mm 1 mps 750 mmHg 77%
    23:00 +26°C° 0 mm 1 mps 750 mmHg 77%

    Day after tomorrow, 21 July, Sunday

    Time Temperature Precipitation Wind Pressure Humidity
    00:00 +26°C° 0 mm 2 mps 750 mmHg 77%
    01:00 +26°C° 0 mm 2 mps 750 mmHg 77%
    02:00 +25°C° 0 mm 2 mps 750 mmHg 77%
    03:00 +25°C° 0 mm 2 mps 750 mmHg 78%
    04:00 +25°C° 0 mm 2 mps 750 mmHg 79%
    05:00 +25°C° 0 mm 1 mps 750 mmHg 80%
    06:00 +27°C° 0 mm 2 mps 750 mmHg 73%
    07:00 +29°C° 0 mm 2 mps 750 mmHg 65%
    08:00 +31°C° 0 mm 2 mps 751 mmHg 58%
    09:00 +34°C° 0 mm 2 mps 750 mmHg 51%
    10:00 +36°C° 0 mm 3 mps 750 mmHg 45%
    11:00 +38°C° 0 mm 3 mps 750 mmHg 39%
    12:00 +40°C° 0 mm 3 mps 749 mmHg 35%
    13:00 +43°C° 0 mm 3 mps 749 mmHg 30%
    14:00 +44°C° 0 mm 3 mps 748 mmHg 26%
    15:00 +45°C° 0 mm 3 mps 748 mmHg 24%
    16:00 +45°C° 0 mm 3 mps 747 mmHg 22%
    17:00 +45°C° 0 mm 3 mps 747 mmHg 20%
    18:00 +43°C° 0 mm 3 mps 747 mmHg 25%
    19:00 +41°C° 0 mm 4 mps 747 mmHg 29%
    20:00 +38°C° 0 mm 4 mps 748 mmHg 34%
    21:00 +37°C° 0 mm 4 mps 748 mmHg 36%
    22:00 +36°C° 0 mm 4 mps 748 mmHg 38%
    23:00 +35°C° 0 mm 4 mps 749 mmHg 41%

    22 July, Monday

    Time Temperature Precipitation Wind Pressure Humidity
    00:00 +35°C° 0 mm 4 mps 749 mmHg 41%
    01:00 +34°C° 0 mm 4 mps 749 mmHg 41%
    02:00 +34°C° 0 mm 3 mps 749 mmHg 42%
    03:00 +33°C° 0 mm 3 mps 748 mmHg 42%
    04:00 +33°C° 0 mm 3 mps 748 mmHg 42%
    05:00 +32°C° 0 mm 2 mps 748 mmHg 42%
    06:00 +34°C° 0 mm 3 mps 748 mmHg 39%
    07:00 +36°C° 0 mm 3 mps 748 mmHg 36%
    08:00 +37°C° 0 mm 3 mps 749 mmHg 33%
    09:00 +38°C° 0 mm 3 mps 749 mmHg 32%
    10:00 +40°C° 0 mm 3 mps 748 mmHg 30%
    11:00 +42°C° 0 mm 3 mps 748 mmHg 28%
    12:00 +42°C° 0 mm 3 mps 748 mmHg 27%
    13:00 +42°C° 0 mm 3 mps 748 mmHg 25%
    14:00 +42°C° 0 mm 3 mps 748 mmHg 24%
    15:00 +40°C° 0 mm 4 mps 748 mmHg 27%
    16:00 +38°C° 0 mm 4 mps 748 mmHg 31%
    17:00 +36°C° 0 mm 4 mps 748 mmHg 34%
    18:00 +33°C° 0.7 mm 4 mps 748 mmHg 48%
    19:00 +29°C° 0.7 mm 3 mps 749 mmHg 63%
    20:00 +27°C° 0.7 mm 2 mps 749 mmHg 77%
    21:00 +26°C° 3.9 mm 3 mps 749 mmHg 83%
    22:00 +25°C° 3.9 mm 3 mps 749 mmHg 88%
    23:00 +23°C° 3.9 mm 4 mps 749 mmHg 93%

    23 July, Tuesday

    Time Temperature Precipitation Wind Pressure Humidity
    00:00 +23°C° 1.5 mm 4 mps 749 mmHg 94%
    01:00 +24°C° 1.5 mm 3 mps 748 mmHg 94%
    02:00 +24°C° 1.5 mm 3 mps 748 mmHg 94%
    03:00 +24°C° 3.3 mm 3 mps 748 mmHg 94%
    04:00 +24°C° 3.3 mm 2 mps 748 mmHg 94%
    05:00 +24°C° 3.3 mm 2 mps 747 mmHg 94%
    06:00 +25°C° 0.4 mm 2 mps 748 mmHg 93%
    07:00 +25°C° 0.4 mm 2 mps 748 mmHg 92%
    08:00 +25°C° 0.4 mm 2 mps 748 mmHg 91%
    09:00 +26°C° 0.1 mm 2 mps 748 mmHg 89%
    10:00 +26°C° 0.1 mm 2 mps 748 mmHg 87%
    11:00 +27°C° 0.1 mm 2 mps 748 mmHg 84%
    12:00 +28°C° 0 mm 2 mps 747 mmHg 78%
    13:00 +30°C° 0 mm 2 mps 747 mmHg 71%
    14:00 +31°C° 0 mm 2 mps 747 mmHg 65%
    15:00 +31°C° 0 mm 2 mps 746 mmHg 64%
    16:00 +33°C° 0 mm 3 mps 746 mmHg 63%
    17:00 +33°C° 0 mm 3 mps 746 mmHg 63%
    18:00 +30°C° 0 mm 3 mps 746 mmHg 69%
    19:00 +29°C° 0 mm 3 mps 746 mmHg 75%
    20:00 +28°C° 0 mm 3 mps 747 mmHg 81%
    21:00 +27°C° 0 mm 2 mps 747 mmHg 84%
    22:00 +27°C° 0 mm 2 mps 747 mmHg 86%
    23:00 +26°C° 0 mm 1 mps 747 mmHg 89%

    24 July, Wednesday

    Time Temperature Precipitation Wind Pressure Humidity
    00:00 +26°C° 0 mm 1 mps 747 mmHg 89%
    01:00 +26°C° 0 mm 1 mps 747 mmHg 90%
    02:00 +25°C° 0 mm 1 mps 747 mmHg 91%
    03:00 +25°C° 0 mm 1 mps 747 mmHg 91%
    04:00 +25°C° 0 mm 1 mps 747 mmHg 91%
    05:00 +25°C° 0 mm 1 mps 747 mmHg 92%
    06:00 +26°C° 0 mm 1 mps 747 mmHg 86%
    07:00 +28°C° 0 mm 1 mps 747 mmHg 79%
    08:00 +29°C° 0 mm 1 mps 748 mmHg 73%
    09:00 +31°C° 0 mm 2 mps 747 mmHg 67%
    10:00 +34°C° 0 mm 2 mps 747 mmHg 60%
    11:00 +35°C° 0 mm 2 mps 747 mmHg 54%
    12:00 +37°C° 0 mm 3 mps 746 mmHg 50%
    13:00 +38°C° 0 mm 3 mps 746 mmHg 46%
    14:00 +40°C° 0 mm 4 mps 745 mmHg 42%
    15:00 +40°C° 0 mm 5 mps 745 mmHg 42%
    16:00 +40°C° 0 mm 5 mps 744 mmHg 43%
    17:00 +40°C° 0 mm 6 mps 744 mmHg 44%
    18:00 +35°C° 1.4 mm 5 mps 744 mmHg 57%
    19:00 +32°C° 1.4 mm 5 mps 745 mmHg 70%
    20:00 +27°C° 1.4 mm 4 mps 745 mmHg 84%
    21:00 +27°C° 3.2 mm 4 mps 746 mmHg 85%
    22:00 +27°C° 3.2 mm 3 mps 747 mmHg 86%
    23:00 +27°C° 3.2 mm 3 mps 748 mmHg 88%
    Show more